FW5188 Weather Reports


time (UTC)temp
F
wind
direction
speed
knots
gust
knots
rain 1hr
in
rain 24hr
in
rain mn
in
humidity
%
barometer
mb
20260906104528 72 67 2.6 4.3 0.00 0.00 0.00 96 1011.1
20260906103023 73 294 7.0 9.6 0.00 0.00 0.00 94 1011.1
20260906101528 73 347 4.3 11.3 0.00 0.00 0.00 94 1010.8
20260906100029 73 162 4.3 8.7 0.00 0.00 0.00 94 1009.7
20260906094515 73 155 4.3 7.0 0.00 0.00 0.00 93 1010.1
20260906093015 74 149 0.9 5.2 0.00 0.00 0.00 92 1010.6
20260906091512 74 139 2.6 4.3 0.00 0.00 0.00 92 1010.7
20260906090011 74 117 0.9 5.2 0.00 0.00 0.00 91 1010.9
20260906084512 74 65 1.7 5.2 0.00 0.00 0.00 91 1011.1
20260906083010 74 53 3.5 8.7 0.00 0.00 0.00 91 1011.5
20260906081513 74 44 5.2 8.7 0.00 0.00 0.00 92 1011.4
20260906080008 74 88 1.7 5.2 0.00 0.00 0.00 92 1011.1
20260906074508 74 70 3.5 6.1 0.00 0.00 0.00 92 1011.0
20260906073007 74 32 2.6 7.0 0.00 0.00 0.00 93 1011.4
20260906071505 74 32 3.5 7.0 0.00 0.00 0.00 93 1011.1
20260906070003 74 24 1.7 3.5 0.00 0.00 0.00 93 1011.0
20260906064603 74 223 0.9 1.7 0.00 0.00 0.00 93 1010.9
20260906063056 75 271 2.6 5.2 0.00 0.00 0.00 90 1010.9
20260906061554 75 99 0.0 0.9 0.00 0.00 0.00 90 1010.9
20260906060121 75 99 0.0 3.5 0.00 0.00 0.00 90 1010.9
20260906054605 76 128 0.9 2.6 0.00 0.00 0.00 90 1010.8
20260906053050 76 128 0.9 2.6 0.00 0.00 0.00 91 1010.6
20260906051548 76 128 0.0 0.9 0.00 0.00 0.00 91 1010.9
20260906050046 76 128 0.0 1.7 0.00 0.00 0.00 90 1011.0
20260906044545 77 128 0.0 0.9 0.00 0.00 0.00 88 1011.1
20260906043044 79 128 0.9 1.7 0.00 0.00 0.00 85 1011.2
20260906041544 79 126 0.0 1.7 0.00 0.00 0.00 84 1011.3
20260906040043 79 126 0.0 0.0 0.00 0.00 0.00 84 1011.5
20260906034558 79 126 0.9 2.6 0.00 0.00 0.00 84 1011.6
20260906033045 79 138 1.7 2.6 0.00 0.00 0.00 84 1011.5
20260906031541 80 186 0.0 0.0 0.00 0.00 0.00 83 1011.3
20260906030043 79 186 0.0 0.0 0.00 0.00 0.00 84 1011.3
20260906024541 80 213 0.9 2.6 0.00 0.00 0.00 84 1011.1
20260906023039 80 213 0.0 0.0 0.00 0.00 0.00 84 1011.1
20260906021543 81 215 0.0 0.0 0.00 0.00 0.00 82 1011.1
20260906020039 81 215 0.0 0.9 0.00 0.00 0.00 82 1011.2
20260906014547 81 215 0.0 1.7 0.00 0.00 0.00 81 1011.3
20260906013037 82 167 0.0 0.9 0.00 0.00 0.00 80 1010.8
20260906011536 82 166 0.9 5.2 0.00 0.00 0.00 78 1010.2
20260906010040 83 74 0.0 6.1 0.00 0.00 0.00 78 1010.1
20260906004538 83 63 4.3 6.1 0.00 0.00 0.00 77 1009.8
20260906003034 84 360 0.9 3.5 0.00 0.00 0.00 73 1009.5
20260906001547 85 45 1.7 2.6 0.00 0.00 0.00 72 1009.6
20260906000036 85 281 0.0 2.6 0.00 0.00 0.00 71 1009.9
20260905234533 86 232 0.9 4.3 0.00 0.00 0.00 70 1010.1
20260905233033 87 215 0.9 4.3 0.00 0.00 0.00 69 1010.1
20260905231531 86 103 1.7 7.0 0.00 0.00 0.00 68 1009.8
20260905230034 86 63 2.6 5.2 0.00 0.00 0.00 67 1009.4
20260905224533 85 28 2.6 4.3 0.00 0.00 0.00 67 1009.6
20260905223042 84 80 1.7 5.2 0.00 0.00 0.00 67 1009.9
20260905221528 85 93 4.3 8.7 0.00 0.00 0.00 67 1009.7
20260905220028 85 62 7.8 13.0 0.00 0.00 0.00 67 1009.7
20260905214526 89 65 10.4 16.5 0.00 0.00 0.00 62 1009.8
20260905213026 94 84 11.3 15.6 0.00 0.00 0.00 53 1009.8
20260905211525 96 59 8.7 14.8 0.00 0.00 0.00 49 1009.7
20260905210033 96 113 3.5 12.2 0.00 0.00 0.00 50 1009.6
20260905204522 96 92 5.2 10.4 0.00 0.00 0.00 51 1009.6
20260905203020 96 33 4.3 11.3 0.00 0.00 0.00 51 1009.7
20260905201523 95 323 3.5 7.8 0.00 0.00 0.00 52 1009.8
20260905200018 95 27 2.6 9.6 0.00 0.00 0.00 53 1010.2
20260905194514 94 29 4.3 10.4 0.00 0.00 0.00 54 1010.2
20260905193018 94 19 4.3 10.4 0.00 0.00 0.00 53 1010.4
20260905191510 94 22 3.5 8.7 0.00 0.00 0.00 54 1010.7
20260905190009 94 84 5.2 10.4 0.00 0.00 0.00 54 1010.9
20260905184507 93 348 2.6 5.2 0.00 0.00 0.00 56 1011.0
20260905183004 94 5 2.6 7.8 0.00 0.00 0.00 57 1011.1
20260905181502 93 58 8.7 11.3 0.00 0.00 0.00 57 1011.4
20260905180058 93 340 5.2 12.2 0.00 0.00 0.00 59 1011.6
20260905174603 93 96 4.3 11.3 0.00 0.00 0.00 58 1011.7
20260905173056 92 52 3.5 10.4 0.00 0.00 0.00 60 1011.9
20260905171556 92 82 5.2 11.3 0.00 0.00 0.00 60 1012.0
20260905170056 93 75 2.6 7.0 0.00 0.00 0.00 60 1012.0
20260905164554 92 119 5.2 11.3 0.00 0.00 0.00 62 1012.3
20260905163050 91 36 0.9 9.6 0.00 0.00 0.00 64 1012.4
20260905161548 91 74 3.5 9.6 0.00 0.00 0.00 65 1012.7
20260905160048 90 65 7.0 11.3 0.00 0.00 0.00 65 1012.9
20260905154542 90 42 6.1 8.7 0.00 0.00 0.00 67 1013.0
20260905153040 89 30 4.3 7.8 0.00 0.00 0.00 68 1012.8
20260905151537 88 58 4.3 9.6 0.00 0.00 0.00 70 1013.0
20260905150034 87 98 2.6 7.8 0.00 0.00 0.00 72 1013.0
20260905144539 86 59 2.6 5.2 0.00 0.00 0.00 74 1013.2
20260905143034 85 38 1.7 4.3 0.00 0.00 0.00 76 1013.2
20260905141526 84 91 1.7 3.5 0.00 0.00 0.00 77 1013.2
20260905140021 82 93 1.7 3.5 0.00 0.00 0.00 81 1013.5
20260905134527 80 322 0.9 2.6 0.00 0.00 0.00 84 1013.6
20260905133014 79 5 0.9 1.7 0.00 0.00 0.00 87 1013.8
20260905131511 77 311 1.7 3.5 0.00 0.00 0.00 88 1013.9
20260905130010 76 313 1.7 3.5 0.00 0.00 0.00 92 1014.0
20260905124514 74 32 1.7 2.6 0.00 0.00 0.00 95 1013.9
20260905123027 73 296 0.0 3.5 0.00 0.00 0.00 95 1013.9
20260905121506 73 279 1.7 3.5 0.00 0.00 0.00 94 1013.7
20260905120004 73 121 0.0 0.0 0.00 0.00 0.00 94 1013.4
20260905114501 72 77 0.0 0.0 0.00 0.00 0.00 94 1013.1
20260905113106 72 77 0.0 0.0 0.00 0.00 0.00 95 1012.9
20260905111604 72 77 0.0 0.0 0.00 0.00 0.00 94 1012.7
20260905110057 72 77 0.0 0.0 0.00 0.00 0.00 94 1012.6